Harlingen, TX

10:48 PM CDT on August 20, 2017 (GMT -0500)
Valley International

Weather History for KHRL - April, 2013

Change the Weather History Date:

Tuesday, April 30, 2013

  Actual Average Record
Temperature  
Mean Temperature 76 °F 78 °F  
Max Temperature 87 °F 88 °F 103 °F (1953)
Min Temperature 65 °F 68 °F 48 °F (1925)
Degree Days  
Heating Degree Days 0 0  
Month to date heating degree days 12 7  
Since 1 July heating degree days 403 622  
Cooling Degree Days 11 13  
Month to date cooling degree days 290 319  
Year to date cooling degree days 645 614  
Growing Degree Days 25 (Base 50)    
Moisture  
Dew Point 69 °F    
Average Humidity 78    
Maximum Humidity 97    
Minimum Humidity 59    
Precipitation  
Precipitation 0.00 in 0.06 in 7.92 in (1976)
Month to date precipitation 2.51 1.67  
Year to date precipitation 5.31 5.43  
Sea Level Pressure  
Sea Level Pressure 29.76 in    
Wind  
Wind Speed 8 mph (ESE)    
Max Wind Speed 18 mph    
Max Gust Speed 22 mph    
Visibility 6 miles    
Events Fog    
T = Trace of Precipitation, MM = Missing Value Source: NWS Daily Summary

Daily Weather History Graph

Daily Weather History Graph

Search for Another Location

Airport or City:

Trip Planner

Search our weather history database for the weather conditions in past years. The results will help you decide how hot, cold, wet, or windy it might be!

Date:

Astronomy

Apr. 30, 2013 Rise Set
Actual Time 6:53 AM CDT 8:02 PM CDT
Civil Twilight 6:29 AM CDT 8:26 PM CDT
Nautical Twilight 6:00 AM CDT 8:55 PM CDT
Astronomical Twilight 5:31 AM CDT 9:24 PM CDT
Moon 12:19 AM CDT (4/30) 11:29 AM CDT (4/30)
Length of Visible Light 13h 56m
Length of Day
13h 08m
Waning Gibbous, 70% of the Moon is Illuminated
Apr 30
Waning Gibbous
May 2
Last Quarter
May 9
New
May 17
First Quarter
May 24
Full

Hourly Weather History & Observations

Time (CDT) Temp. Heat Index Dew Point Humidity Pressure Visibility Wind Dir Wind Speed Gust Speed Precip Events Conditions
12:52 AM 69.1 °F - 66.9 °F 93% 29.80 in 6.0 mi South 3.5 mph - N/A   Clear
1:52 AM 68.0 °F - 66.0 °F 93% 29.79 in 4.0 mi Calm Calm - N/A   Clear
2:52 AM 68.0 °F - 66.9 °F 96% 29.79 in 4.0 mi Calm Calm - N/A   Scattered Clouds
3:52 AM 69.1 °F - 66.9 °F 93% 29.78 in 5.0 mi SSE 3.5 mph - N/A   Overcast
4:52 AM 68.0 °F - 66.9 °F 96% 29.77 in 4.0 mi NE 4.6 mph - N/A   Mostly Cloudy
5:45 AM 68.0 °F - 66.2 °F 94% 29.76 in 2.5 mi ENE 3.5 mph - N/A   Scattered Clouds
5:52 AM 68.0 °F - 66.0 °F 93% 29.76 in 2.0 mi ENE 4.6 mph - N/A   Scattered Clouds
6:08 AM 66.2 °F - 66.2 °F 100% 29.76 in 1.0 mi Calm Calm - N/A   Clear
6:16 AM 66.2 °F - 66.2 °F 100% 29.76 in 0.8 mi ESE 3.5 mph - N/A   Clear
6:36 AM 66.2 °F - 64.4 °F 94% 29.77 in 0.2 mi East 3.5 mph - N/A Fog Fog
6:52 AM 66.0 °F - 64.9 °F 96% 29.78 in 0.2 mi ESE 4.6 mph - 0.01 in Fog Fog
7:17 AM 66.2 °F - 66.2 °F 100% 29.78 in 0.5 mi Calm Calm - N/A Fog Fog
7:25 AM 66.2 °F - 66.2 °F 100% 29.78 in 1.2 mi Calm Calm - N/A   Scattered Clouds
7:36 AM 68.0 °F - 66.2 °F 94% 29.78 in 2.0 mi NE 3.5 mph - N/A   Mostly Cloudy
7:52 AM 69.1 °F - 68.0 °F 96% 29.79 in 2.5 mi Calm Calm - N/A   Partly Cloudy
8:02 AM 69.8 °F - 68.0 °F 94% 29.78 in 4.0 mi East 4.6 mph - N/A   Partly Cloudy
8:33 AM 71.6 °F - 69.8 °F 94% 29.77 in 8.0 mi East 5.8 mph - N/A   Clear
8:52 AM 73.0 °F - 71.1 °F 93% 29.78 in 9.0 mi ESE 4.6 mph - N/A   Clear
9:30 AM 75.2 °F - 71.6 °F 89% 29.78 in 10.0 mi East 5.8 mph - N/A   Scattered Clouds
9:48 AM 77.0 °F - 71.6 °F 83% 29.78 in 10.0 mi ESE 6.9 mph - N/A   Mostly Cloudy
9:52 AM 77.0 °F - 71.1 °F 82% 29.78 in 10.0 mi ESE 6.9 mph - N/A   Mostly Cloudy
10:01 AM 77.0 °F - 71.6 °F 83% 29.78 in 10.0 mi SE 5.8 mph - N/A   Scattered Clouds
10:10 AM 77.0 °F - 71.6 °F 83% 29.79 in 10.0 mi Variable 4.6 mph - N/A   Mostly Cloudy
10:50 AM 78.8 °F - 69.8 °F 74% 29.78 in 10.0 mi Variable 5.8 mph - N/A   Mostly Cloudy
10:52 AM 78.1 °F - 70.0 °F 76% 29.78 in 10.0 mi SE 9.2 mph - N/A   Mostly Cloudy
11:31 AM 80.6 °F 84.6 °F 71.6 °F 74% 29.77 in 10.0 mi SE 9.2 mph - N/A   Scattered Clouds
11:52 AM 81.0 °F 84.1 °F 69.1 °F 67% 29.76 in 10.0 mi ESE 9.2 mph - N/A   Partly Cloudy
12:52 PM 84.0 °F 87.0 °F 68.0 °F 58% 29.75 in 10.0 mi Calm Calm - N/A   Partly Cloudy
1:52 PM 84.2 °F 88.4 °F 69.8 °F 62% 29.73 in 10.0 mi East 10.4 mph 17.3 mph N/A   Clear
2:52 PM 84.9 °F 89.4 °F 70.0 °F 61% 29.72 in 10.0 mi ENE 12.7 mph - N/A   Scattered Clouds
3:52 PM 84.9 °F 90.1 °F 71.1 °F 63% 29.70 in 10.0 mi East 15.0 mph - N/A   Partly Cloudy
4:52 PM 84.0 °F 89.0 °F 71.1 °F 65% 29.69 in 10.0 mi East 16.1 mph - N/A   Partly Cloudy
5:52 PM 82.0 °F 86.3 °F 71.1 °F 69% 29.69 in 10.0 mi East 15.0 mph - N/A   Partly Cloudy
6:52 PM 80.1 °F 83.6 °F 71.1 °F 74% 29.69 in 10.0 mi East 15.0 mph - N/A   Clear
6:54 PM 80.6 °F 84.6 °F 71.6 °F 74% 29.69 in 10.0 mi East 15.0 mph - N/A   Scattered Clouds
7:52 PM 77.0 °F - 72.0 °F 84% 29.71 in 9.0 mi East 10.4 mph - N/A   Scattered Clouds
8:52 PM 75.0 °F - 72.0 °F 90% 29.74 in 7.0 mi ESE 10.4 mph - N/A   Scattered Clouds
8:59 PM 75.2 °F - 71.6 °F 89% 29.74 in 7.0 mi ESE 10.4 mph - N/A   Mostly Cloudy
9:23 PM 75.2 °F - 71.6 °F 89% 29.74 in 6.0 mi ESE 9.2 mph - N/A   Scattered Clouds
9:34 PM 75.2 °F - 71.6 °F 89% 29.74 in 5.0 mi ESE 8.1 mph - N/A   Scattered Clouds
9:48 PM 75.2 °F - 71.6 °F 89% 29.75 in 5.0 mi East 6.9 mph - N/A   Mostly Cloudy
9:52 PM 75.0 °F - 73.0 °F 94% 29.75 in 5.0 mi East 6.9 mph - N/A   Mostly Cloudy
10:52 PM 75.0 °F - 72.0 °F 90% 29.77 in 5.0 mi ESE 9.2 mph - N/A   Mostly Cloudy
11:28 PM 75.2 °F - 71.6 °F 89% 29.78 in 6.0 mi SE 13.8 mph - N/A   Overcast
11:52 PM 75.0 °F - 72.0 °F 90% 29.78 in 6.0 mi SE 8.1 mph - N/A   Mostly Cloudy